FW4485 Weather Reports


time (UTC)temp
F
wind
direction
speed
knots
gust
knots
rain 1hr
in
rain 24hr
in
rain mn
in
humidity
%
barometer
mb
20260503054523 43 349 0.0 0.9 0.00 0.00 0.00 72 1016.3
20260503053034 42 348 0.0 0.9 0.00 0.00 0.00 68 1016.3
20260503051526 41 349 0.0 0.9 0.00 0.00 0.00 71 1016.3
20260503050030 41 297 0.0 0.9 0.00 0.00 0.00 73 1016.4
20260503044531 43 254 0.0 0.9 0.00 0.00 0.00 73 1016.2
20260503043020 44 329 0.0 0.9 0.00 0.00 0.00 64 1016.0
20260503041524 43 351 0.0 0.9 0.00 0.00 0.00 66 1016.0
20260503040029 42 310 0.0 0.0 0.00 0.00 0.00 72 1016.0
20260503034529 42 310 0.0 0.0 0.00 0.00 0.00 71 1015.8
20260503033018 42 310 0.0 0.0 0.00 0.00 0.00 69 1015.7
20260503031524 43 310 0.0 0.0 0.00 0.00 0.00 66 1015.5
20260503030031 45 310 0.0 0.0 0.00 0.00 0.00 63 1015.6
20260503024525 46 310 0.0 0.0 0.00 0.00 0.00 59 1015.6
20260503023027 47 309 0.0 0.0 0.00 0.00 0.00 57 1015.6
20260503021518 48 355 0.0 0.9 0.00 0.00 0.00 53 1015.4
20260503020031 49 356 0.0 0.9 0.00 0.00 0.00 51 1015.2
20260503014523 50 314 0.0 0.9 0.00 0.00 0.00 51 1015.1
20260503013025 51 348 0.0 2.6 0.00 0.00 0.00 49 1014.9
20260503011528 51 354 0.9 2.6 0.00 0.00 0.00 47 1014.7
20260503010033 52 211 0.0 0.9 0.00 0.00 0.00 47 1014.5
20260503004519 53 12 0.9 4.3 0.00 0.00 0.00 45 1014.4
20260503003031 54 172 0.9 3.5 0.00 0.00 0.00 43 1014.0
20260503001528 55 352 1.7 4.3 0.00 0.00 0.00 42 1013.7
20260503000039 56 323 0.9 6.1 0.00 0.00 0.00 41 1013.5
20260502234547 57 20 0.9 5.2 0.00 0.00 0.00 42 1013.2
20260502233024 58 260 1.7 6.1 0.00 0.00 0.00 41 1012.9
20260502231531 58 181 1.7 6.1 0.00 0.00 0.00 40 1012.8
20260502230029 58 340 0.9 3.5 0.00 0.00 0.00 41 1012.7
20260502224529 59 6 0.9 5.2 0.00 0.00 0.00 39 1012.6
20260502223037 60 349 0.9 7.0 0.00 0.00 0.00 39 1012.4
20260502221525 60 255 1.7 7.0 0.00 0.00 0.00 37 1012.1
20260502220028 61 173 1.7 6.1 0.00 0.00 0.00 36 1011.8
20260502214528 62 212 1.7 7.8 0.00 0.00 0.00 36 1011.4
20260502213028 63 18 1.7 6.1 0.00 0.00 0.00 34 1011.2
20260502211530 64 198 1.7 7.8 0.00 0.00 0.00 34 1011.0
20260502210025 65 77 1.7 5.2 0.00 0.00 0.00 33 1010.9
20260502204509 66 285 1.7 4.3 0.00 0.00 0.00 34 1010.7
20260502203013 65 51 0.9 5.2 0.00 0.00 0.00 33 1010.9
20260502201517 65 271 1.7 6.1 0.00 0.00 0.00 31 1011.1
20260502200024 65 143 1.7 6.1 0.00 0.00 0.00 34 1011.2
20260502194529 64 51 1.7 4.3 0.00 0.00 0.00 33 1011.6
20260502193012 64 32 0.9 5.2 0.00 0.00 0.00 33 1012.0
20260502191513 63 56 2.6 7.0 0.00 0.00 0.00 33 1012.2
20260502190021 64 5 4.3 7.8 0.00 0.00 0.00 37 1012.2
20260502184527 62 212 2.6 5.2 0.00 0.00 0.00 35 1012.3
20260502183028 61 56 2.6 4.3 0.00 0.00 0.00 36 1012.6
20260502181511 61 16 0.9 3.5 0.00 0.00 0.00 39 1012.7
20260502163036 56 233 0.9 5.2 0.00 0.00 0.00 46 1014.6
20260502161535 55 322 0.9 2.6 0.00 0.00 0.00 49 1014.8
20260502151525 52 297 0.9 1.7 0.00 0.00 0.00 49 1015.1
20260502123033 51 203 0.0 2.6 0.00 0.00 0.00 55 1014.1
20260502121515 51 235 0.9 1.7 0.00 0.00 0.00 57 1013.9
20260502114522 51 348 0.0 1.7 0.00 0.00 0.00 62 1014.0
20260502113004 51 7 0.9 2.6 0.00 0.00 0.00 65 1013.9
20260502111511 51 8 0.0 1.7 0.00 0.00 0.00 67 1013.7
20260502110016 50 39 0.0 1.7 0.00 0.00 0.00 69 1013.6
20260502104522 50 145 0.0 0.9 0.00 0.00 0.00 69 1013.6
20260502103022 51 352 0.0 2.6 0.00 0.00 0.00 69 1013.5
20260502101511 51 32 0.9 3.5 0.00 0.00 0.00 69 1013.6
20260502091527 52 311 0.0 1.7 0.00 0.00 0.00 68 1013.7
20260502071521 53 11 0.9 3.5 0.00 0.00 0.00 70 1012.5
20260502070025 53 87 0.0 2.6 0.00 0.00 0.00 73 1012.6
20260502064529 52 14 0.9 3.5 0.00 0.00 0.00 75 1012.8